1703721795.6,286046990.0,P
1703721815.4,286046989.5,P
1703721835.3,286046989.8,P
1703721855.1,286046990.0,Y
1703721875.8,286047000.9,P
1703721895.7,286047001.2,N
1703721915.5,286046998.3,N
1703721935.4,286047000.9,N
1703721955.2,286047001.0,N
1703721975.0,286046998.1,N
1703721975.9,286046998.1,N
1703721995.8,286047001.1,N
1703722015.6,286046998.6,N
1703722035.4,286047000.7,N
1703722055.3,286047000.3,N
1703722075.1,286046999.3,N
1703722095.9,286046996.7,N
1703722115.7,286046996.6,N
1703722135.5,286046996.5,N
1703722155.4,286046997.7,N
1703722175.2,286046995.5,N
1703722195.1,286046995.1,N
1703722196.0,286046995.1,N
1703722215.8,286046995.3,N
1703722235.6,286046995.3,N
1703722255.5,286046997.4,N
1703722275.3,286046997.7,N
1703722295.1,286046997.4,N
1703722315.9,286046997.9,N
1703722335.7,286046996.9,N
1703722355.6,286046999.0,N
1703722375.4,286046998.8,N
1703722395.2,286047001.2,N
1703722415.1,286046998.8,N
1703722416.0,286046998.8,N
1703722435.8,286046996.5,N
1703722455.7,286046999.4,N
1703722475.5,286046998.5,N
1703722495.3,286047000.5,N
1703722515.2,286046998.3,N
1703722535.9,286046999.0,N
1703722555.7,286046996.9,N
1703722575.6,286046997.3,N
1703722595.4,286046999.1,N
1703722615.2,286046999.4,N
1703722635.1,286046999.6,N
1703722636.0,286046999.6,N
1703722655.8,286046998.4,N
1703722675.7,286047001.0,N
1703722695.5,286047001.2,N
1703722715.3,286046998.1,N
1703722735.2,286046998.1,N
1703722755.0,286046999.4,N
1703722755.9,286046999.4,N
1703722775.8,286046998.2,N
1703722795.6,286046998.5,N
1703722815.4,286047000.7,N
1703722835.3,286047000.3,N
1703722855.1,286046998.3,N
1703722875.8,286046996.7,N
1703722895.7,286046996.6,N
1703722915.5,286046997.0,N
1703722935.3,286046998.1,N
1703722955.2,286046998.6,N
1703722975.0,286047000.5,N
1703722975.9,286047000.5,N
1703722995.8,286046999.9,N
1703723015.6,286047002.8,N
1703723035.4,286047000.9,N
1703723055.3,286047000.3,N
1703723075.1,286046998.2,N
1703723095.9,286047001.2,N
1703723115.7,286046999.9,N
1703723135.5,286046998.2,N
1703723155.4,286046998.9,N
1703723175.2,286047001.0,N
1703723195.0,286047000.5,N
1703723195.9,286047000.5,N
1703723215.8,286047000.9,N
1703723235.6,286047001.1,N
1703723255.5,286047000.4,N
1703723275.3,286047000.7,N
1703723295.1,286046996.9,N
1703723315.9,286046996.6,N
1703723335.7,286046999.1,N
1703723355.5,286046999.0,N
1703723375.4,286046998.4,N
1703723395.2,286046998.1,N
1703723415.0,286047001.0,N
1703723416.0,286047001.0,N
1703723435.8,286046998.2,N
1703723455.6,286047000.3,N
1703723475.5,286046999.8,N
1703723495.3,286047002.3,N
1703723515.1,286046999.3,N
1703723535.9,286046999.0,N
1703723555.7,286046998.1,N
1703723575.5,286047000.1,N
1703723595.4,286047002.2,N
1703723615.2,286046999.9,N
1703723635.1,286047000.7,N
1703723636.0,286047000.7,N
1703723655.8,286046999.9,N
1703723675.6,286046999.8,N
1703723695.6,286047000.6,N
1703723715.5,286046999.9,N
1703723735.3,286046999.8,N
1703723755.1,286047000.9,N
1703723775.9,286046999.8,N
1703723795.7,286047000.1,N
1703723815.5,286046998.2,N
1703723835.4,286047000.0,N
1703723855.2,286047002.6,N
1703723875.1,286047004.4,Y
1703723876.0,286047004.4,P
1703723895.8,286047005.6,N
1703723915.6,286047006.0,N
1703723935.5,286047005.4,N
1703723955.3,286047002.9,N
1703723975.1,286047004.3,N
1703723995.9,286047001.5,N
1703724015.7,286047004.3,N
1703724035.6,286047003.5,N
1703724055.4,286047003.9,N
1703724075.2,286047003.7,N
1703724095.1,286047003.7,N
1703724096.0,286047003.7,N
1703724115.8,286047002.2,N
1703724135.6,286047002.5,N
1703724155.5,286047002.6,N
1703724175.3,286047001.6,N
1703724195.2,286047002.5,N
1703724215.9,286047002.3,N
1703724235.8,286047002.7,N
1703724255.6,286047002.4,N
1703724275.4,286047001.6,N
1703724295.3,286047002.6,N
1703724315.1,286047002.1,N
1703724335.8,286047002.5,N
1703724355.7,286046999.8,N
1703724375.5,286047001.9,N
1703724395.4,286047001.4,N
1703724415.2,286047004.1,N
1703724435.0,286047003.6,N
1703724435.9,286047003.6,N
1703724455.8,286047002.4,N
1703724475.6,286047000.5,N
1703724495.4,286047002.1,N
1703724515.3,286047002.4,N
1703724535.1,286047000.1,N
1703724555.9,286046999.0,N
1703724575.7,286046998.5,N
1703724595.5,286047000.9,N
1703724615.4,286046998.6,N
1703724635.2,286047000.8,N
1703724655.0,286046998.4,N
1703724655.9,286046998.4,N
1703724675.8,286046998.7,N
1703724695.6,286046999.0,N
1703724715.5,286046996.8,N
1703724735.3,286046997.0,N
1703724755.2,286046994.9,N
1703724775.9,286046997.5,N
1703724795.7,286046994.9,N
1703724815.6,286046997.1,N
1703724835.4,286046997.8,N
1703724855.2,286046998.0,N
1703724875.1,286046995.5,N
1703724876.0,286046995.5,N
1703724895.8,286046993.3,N
1703724915.7,286046996.0,N
1703724935.5,286046993.5,N
1703724955.3,286046993.8,N
1703724975.2,286046991.7,N
1703724995.0,286046996.2,N
1703724995.9,286046996.2,N
1703725015.8,286046993.6,N
1703725035.6,286046994.5,N
1703725055.4,286046991.8,Y
1703725075.3,286046995.5,P
1703725095.1,286046993.5,P
1703725115.9,286046994.0,P
1703725135.7,286046994.3,Y
1703725155.5,286046998.3,P
1703725175.4,286047000.7,N
1703725195.2,286046998.6,N
